Location: Maiden
(35.5760°N, 81.2120°W)
Time: 11:17:36
(UTC-04:00)

USA 186 - Pass Details

Date: 14 June 2018
Orbit: 262 x 451 km, 96.9° (Epoch: 20 August)

Event Time Altitude Azimuth Distance (km) Brightness Sun altitude
Rises 20:16:31 0° 134° (SE) 2,467 5.0 3.7°
Reaches altitude 10° 20:19:05 10° 114° (ESE) 1,585 4.0 3.2°
Drops below altitude 10° 20:23:34 10° 30° (NNE) 1,554 4.6 2.4°
Enters shadow 21:15:02 -72° 171° (S) 12,447 9.1 -6.6°
Maximum altitude 21:52:11 21° 264° (W) 1,074 4.3 -12.5°
